GJS4192 KRIC-KEWR

Flight info

Callsign GJS4192
Flight time 0h 47m
Altitude 25000
Route LUCYL6 LUCYL HYTRA PHLBO4
Aircraft CRJ7/M-SDFGIRWY/S

Departure

Time 2026-04-26 19:13
Airport Richmond International Airport (KRIC)

Arrival

Time 2026-04-26 20:01
Airport Newark Liberty International Airport (KEWR)
Time Latitude Longitude Altitude Speed Heading
2026-04-26 18:25 37.50830 -77.33107 174 ft 0 kts 11°
2026-04-26 18:27 37.50831 -77.33107 174 ft 0 kts 11°
2026-04-26 18:55 37.50828 -77.33108 174 ft 1 kts
2026-04-26 18:55 37.50824 -77.33107 174 ft 1 kts 332°
2026-04-26 18:56 37.50818 -77.33102 174 ft 2 kts 325°
2026-04-26 18:56 37.50808 -77.33094 174 ft 2 kts 325°
2026-04-26 18:56 37.50798 -77.33083 174 ft 2 kts 310°
2026-04-26 18:56 37.50791 -77.33069 174 ft 2 kts 294°
2026-04-26 18:57 37.50787 -77.33053 174 ft 2 kts 278°
2026-04-26 18:57 37.50787 -77.33042 174 ft 2 kts 269°
2026-04-26 18:57 37.50787 -77.33030 174 ft 0 kts 269°
2026-04-26 19:02 37.50787 -77.33033 174 ft 0 kts 256°
2026-04-26 19:02 37.50776 -77.33048 174 ft 3 kts 212°
2026-04-26 19:02 37.50767 -77.33050 174 ft 1 kts 176°
2026-04-26 19:03 37.50763 -77.33044 174 ft 1 kts 105°
2026-04-26 19:03 37.50760 -77.33028 174 ft 3 kts 101°
2026-04-26 19:03 37.50756 -77.32998 174 ft 4 kts 97°
2026-04-26 19:03 37.50744 -77.32960 174 ft 5 kts 132°
2026-04-26 19:04 37.50709 -77.32948 174 ft 7 kts 191°
2026-04-26 19:04 37.50651 -77.32965 174 ft 10 kts 193°
2026-04-26 19:04 37.50578 -77.32987 174 ft 12 kts 193°
2026-04-26 19:04 37.50510 -77.33000 174 ft 8 kts 167°
2026-04-26 19:05 37.50463 -77.32883 175 ft 10 kts 103°
2026-04-26 19:05 37.50448 -77.32778 175 ft 15 kts 96°
2026-04-26 19:05 37.50439 -77.32642 174 ft 16 kts 95°
2026-04-26 19:06 37.50430 -77.32497 174 ft 17 kts 94°
2026-04-26 19:06 37.50421 -77.32348 174 ft 17 kts 94°
2026-04-26 19:06 37.50412 -77.32192 174 ft 18 kts 94°
2026-04-26 19:06 37.50402 -77.32032 174 ft 19 kts 94°
2026-04-26 19:07 37.50393 -77.31876 174 ft 13 kts 95°
2026-04-26 19:07 37.50386 -77.31754 174 ft 12 kts 91°
2026-04-26 19:07 37.50373 -77.31657 174 ft 11 kts 117°
2026-04-26 19:07 37.50315 -77.31584 174 ft 13 kts 146°
2026-04-26 19:08 37.50236 -77.31521 174 ft 14 kts 148°
2026-04-26 19:08 37.50147 -77.31451 174 ft 16 kts 148°
2026-04-26 19:08 37.50052 -77.31375 174 ft 17 kts 147°
2026-04-26 19:08 37.49949 -77.31293 174 ft 17 kts 148°
2026-04-26 19:09 37.49843 -77.31208 174 ft 19 kts 147°
2026-04-26 19:09 37.49733 -77.31119 174 ft 20 kts 147°
2026-04-26 19:09 37.49623 -77.31030 174 ft 16 kts 147°
2026-04-26 19:09 37.49543 -77.30966 174 ft 11 kts 147°
2026-04-26 19:10 37.49502 -77.30922 174 ft 7 kts 119°
2026-04-26 19:10 37.49506 -77.30860 174 ft 8 kts 64°
2026-04-26 19:10 37.49535 -77.30796 174 ft 9 kts 57°
2026-04-26 19:10 37.49570 -77.30732 174 ft 7 kts 54°
2026-04-26 19:11 37.49605 -77.30708 174 ft 5 kts 351°
2026-04-26 19:11 37.49634 -77.30729 174 ft 2 kts 324°
2026-04-26 19:11 37.49635 -77.30730 174 ft 0 kts 324°
2026-04-26 19:13 37.49636 -77.30731 174 ft 2 kts 324°
2026-04-26 19:13 37.49863 -77.30913 173 ft 81 kts 327°
2026-04-26 19:13 37.50537 -77.31456 220 ft 143 kts 331°
2026-04-26 19:13 37.51392 -77.32153 1012 ft 145 kts 332°
2026-04-26 19:14 37.52322 -77.32724 1743 ft 152 kts 347°
2026-04-26 19:14 37.53373 -77.32797 2299 ft 154 kts 13°
2026-04-26 19:14 37.54376 -77.32144 2639 ft 180 kts 41°
2026-04-26 19:14 37.54681 -77.31785 2748 ft 188 kts 42°
2026-04-26 19:15 37.56265 -77.29853 4441 ft 191 kts 43°
2026-04-26 19:15 37.57226 -77.28599 5230 ft 209 kts 45°
2026-04-26 19:15 37.58231 -77.27149 6004 ft 230 kts 47°
2026-04-26 19:15 37.59280 -77.25522 6800 ft 247 kts 49°
2026-04-26 19:16 37.60388 -77.23809 7611 ft 262 kts 47°
2026-04-26 19:16 37.61612 -77.22072 8605 ft 270 kts 45°
2026-04-26 19:16 37.62902 -77.20312 9715 ft 275 kts 45°
2026-04-26 19:16 37.64242 -77.18544 10749 ft 279 kts 44°
2026-04-26 19:17 37.65612 -77.16716 11475 ft 297 kts 45°
2026-04-26 19:17 37.67103 -77.14826 12321 ft 306 kts 41°
2026-04-26 19:17 37.68695 -77.13063 13368 ft 309 kts 38°
2026-04-26 19:17 37.70423 -77.11316 14087 ft 322 kts 36°
2026-04-26 19:18 37.72198 -77.09580 14922 ft 327 kts 36°
2026-04-26 19:18 37.74001 -77.07783 15746 ft 332 kts 37°
2026-04-26 19:18 37.75824 -77.05953 16537 ft 336 kts 37°
2026-04-26 19:18 37.77673 -77.04088 17297 ft 341 kts 37°
2026-04-26 19:19 37.79544 -77.02198 17668 ft 357 kts 37°
2026-04-26 19:19 37.81543 -77.00180 17886 ft 376 kts 37°
2026-04-26 19:19 37.83619 -76.98080 18400 ft 385 kts 37°
2026-04-26 19:19 37.85765 -76.95912 18682 ft 399 kts 37°
2026-04-26 19:20 37.87955 -76.93697 19232 ft 404 kts 37°
2026-04-26 19:20 37.89451 -76.92268 19584 ft 406 kts 31°
2026-04-26 19:20 37.92882 -76.90334 20293 ft 409 kts 19°
2026-04-26 19:20 37.95579 -76.89073 20798 ft 414 kts 20°
2026-04-26 19:21 37.98238 -76.87770 21285 ft 418 kts 21°
2026-04-26 19:21 38.00937 -76.86321 21774 ft 422 kts 22°
2026-04-26 19:21 38.03652 -76.84821 22243 ft 425 kts 22°
2026-04-26 19:21 38.06389 -76.83320 22704 ft 429 kts 22°
2026-04-26 19:22 38.09113 -76.81832 23141 ft 432 kts 22°
2026-04-26 19:22 38.11899 -76.80314 23582 ft 435 kts 22°
2026-04-26 19:22 38.14673 -76.78799 23950 ft 438 kts 22°
2026-04-26 19:22 38.17489 -76.77254 24302 ft 441 kts 22°
2026-04-26 19:23 38.20329 -76.75693 24625 ft 445 kts 22°
2026-04-26 19:23 38.23153 -76.74144 24867 ft 447 kts 22°
2026-04-26 19:23 38.26011 -76.72575 25020 ft 444 kts 22°
2026-04-26 19:23 38.28861 -76.71011 25088 ft 444 kts 22°
2026-04-26 19:24 38.31683 -76.69462 25121 ft 445 kts 22°
2026-04-26 19:24 38.34539 -76.67890 25138 ft 446 kts 22°
2026-04-26 19:24 38.40225 -76.64755 25151 ft 447 kts 22°
2026-04-26 19:25 38.42894 -76.63282 25153 ft 449 kts 21°
2026-04-26 19:25 38.43866 -76.62745 25153 ft 450 kts 21°
2026-04-26 19:25 38.48674 -76.60088 25159 ft 452 kts 21°
2026-04-26 19:25 38.51529 -76.58508 25160 ft 451 kts 21°
2026-04-26 19:26 38.54421 -76.56906 25161 ft 449 kts 21°
2026-04-26 19:26 38.57253 -76.55335 25159 ft 447 kts 21°
2026-04-26 19:26 38.60115 -76.53747 25162 ft 446 kts 21°
2026-04-26 19:26 38.62976 -76.52159 25164 ft 447 kts 21°
2026-04-26 19:27 38.65797 -76.50592 25166 ft 447 kts 21°
2026-04-26 19:27 38.68652 -76.49005 25167 ft 448 kts 21°
2026-04-26 19:27 38.71536 -76.47399 25167 ft 449 kts 21°
2026-04-26 19:27 38.74402 -76.45802 25170 ft 450 kts 21°
2026-04-26 19:28 38.77264 -76.44206 25171 ft 450 kts 21°
2026-04-26 19:28 38.80157 -76.42590 25168 ft 451 kts 21°
2026-04-26 19:28 38.83006 -76.40999 25172 ft 451 kts 21°
2026-04-26 19:28 38.85891 -76.39386 25172 ft 452 kts 21°
2026-04-26 19:29 38.88775 -76.37772 25172 ft 452 kts 21°
2026-04-26 19:29 38.90697 -76.36696 25171 ft 452 kts 21°
2026-04-26 19:29 38.94534 -76.34545 25174 ft 452 kts 21°
2026-04-26 19:29 38.97414 -76.32928 25176 ft 450 kts 21°
2026-04-26 19:30 39.00285 -76.31314 25176 ft 448 kts 21°
2026-04-26 19:30 39.02185 -76.30246 25173 ft 446 kts 21°
2026-04-26 19:30 39.05031 -76.28645 25181 ft 443 kts 21°
2026-04-26 19:30 39.06896 -76.27594 25181 ft 440 kts 21°
2026-04-26 19:31 39.10636 -76.25485 25181 ft 434 kts 21°
2026-04-26 19:31 39.13371 -76.23938 25183 ft 431 kts 22°
2026-04-26 19:31 39.15915 -76.21925 25176 ft 423 kts 33°
2026-04-26 19:31 39.18175 -76.19582 24898 ft 419 kts 38°
2026-04-26 19:32 39.20321 -76.17027 24539 ft 418 kts 40°
2026-04-26 19:32 39.22447 -76.14419 24182 ft 418 kts 40°
2026-04-26 19:32 39.24530 -76.11865 23837 ft 417 kts 39°
2026-04-26 19:32 39.26658 -76.09337 23464 ft 412 kts 39°
2026-04-26 19:33 39.28760 -76.06875 23069 ft 401 kts 39°
2026-04-26 19:33 39.30811 -76.04468 22697 ft 395 kts 39°
2026-04-26 19:33 39.32818 -76.02110 22324 ft 392 kts 39°
2026-04-26 19:33 39.34832 -75.99738 21956 ft 390 kts 39°
2026-04-26 19:34 39.36846 -75.97368 21601 ft 388 kts 38°
2026-04-26 19:34 39.38815 -75.95046 21294 ft 385 kts 38°
2026-04-26 19:34 39.40794 -75.92711 20991 ft 384 kts 38°
2026-04-26 19:34 39.42767 -75.90380 20693 ft 382 kts 38°
2026-04-26 19:35 39.44718 -75.88074 20402 ft 381 kts 38°
2026-04-26 19:35 39.46679 -75.85757 20107 ft 380 kts 38°
2026-04-26 19:35 39.48633 -75.83446 19817 ft 378 kts 38°
2026-04-26 19:35 39.50552 -75.81172 19537 ft 375 kts 38°
2026-04-26 19:36 39.52476 -75.78888 19251 ft 371 kts 38°
2026-04-26 19:36 39.53740 -75.77387 19062 ft 371 kts 38°
2026-04-26 19:36 39.56268 -75.74389 18692 ft 369 kts 38°
2026-04-26 19:36 39.58162 -75.72133 18406 ft 368 kts 38°
2026-04-26 19:37 39.60050 -75.69893 18085 ft 367 kts 38°
2026-04-26 19:37 39.61926 -75.67657 17771 ft 363 kts 38°
2026-04-26 19:37 39.63755 -75.65479 17422 ft 356 kts 38°
2026-04-26 19:37 39.65579 -75.63307 17131 ft 355 kts 38°
2026-04-26 19:38 39.67399 -75.61127 16823 ft 357 kts 39°
2026-04-26 19:38 39.69225 -75.58925 16523 ft 359 kts 39°
2026-04-26 19:38 39.71030 -75.56773 16238 ft 353 kts 39°
2026-04-26 19:38 39.72823 -75.54614 15932 ft 348 kts 39°
2026-04-26 19:39 39.74612 -75.52463 15640 ft 349 kts 39°
2026-04-26 19:39 39.76370 -75.50342 15345 ft 349 kts 39°
2026-04-26 19:39 39.78155 -75.48189 15054 ft 348 kts 39°
2026-04-26 19:39 39.79940 -75.46038 14765 ft 345 kts 39°
2026-04-26 19:40 39.81692 -75.43918 14475 ft 349 kts 39°
2026-04-26 19:40 39.83478 -75.41760 14192 ft 347 kts 39°
2026-04-26 19:40 39.85226 -75.39645 13906 ft 345 kts 39°
2026-04-26 19:40 39.86977 -75.37524 13590 ft 343 kts 39°
2026-04-26 19:41 39.88725 -75.35409 13275 ft 341 kts 39°
2026-04-26 19:41 39.90459 -75.33304 12969 ft 339 kts 39°
2026-04-26 19:41 39.92164 -75.31234 12667 ft 336 kts 40°
2026-04-26 19:41 39.93320 -75.29837 12459 ft 335 kts 39°
2026-04-26 19:42 39.95544 -75.27125 12063 ft 322 kts 40°
2026-04-26 19:42 39.97142 -75.25174 11760 ft 313 kts 39°
2026-04-26 19:42 39.98731 -75.23255 11455 ft 306 kts 40°
2026-04-26 19:42 40.00280 -75.21373 11157 ft 300 kts 40°
2026-04-26 19:43 40.01773 -75.19552 10888 ft 294 kts 40°
2026-04-26 19:43 40.03261 -75.17737 10673 ft 286 kts 40°
2026-04-26 19:43 40.04684 -75.16002 10456 ft 281 kts 40°
2026-04-26 19:43 40.06111 -75.14259 10223 ft 277 kts 40°
2026-04-26 19:44 40.07510 -75.12552 9977 ft 273 kts 40°
2026-04-26 19:44 40.08893 -75.10862 9708 ft 272 kts 41°
2026-04-26 19:44 40.10283 -75.09161 9449 ft 275 kts 41°
2026-04-26 19:44 40.11661 -75.07470 9210 ft 274 kts 41°
2026-04-26 19:45 40.13059 -75.05756 8901 ft 274 kts 41°
2026-04-26 19:45 40.14462 -75.04053 8591 ft 271 kts 41°
2026-04-26 19:45 40.15823 -75.02406 8289 ft 267 kts 41°
2026-04-26 19:45 40.17184 -75.00768 7980 ft 262 kts 41°
2026-04-26 19:46 40.18524 -74.99169 7679 ft 258 kts 41°
2026-04-26 19:46 40.19845 -74.97594 7386 ft 254 kts 41°
2026-04-26 19:46 40.21136 -74.96036 7078 ft 253 kts 44°
2026-04-26 19:46 40.22349 -74.94361 6792 ft 251 kts 46°
2026-04-26 19:47 40.23508 -74.92685 6500 ft 253 kts 47°
2026-04-26 19:47 40.24296 -74.91534 6290 ft 258 kts 47°
2026-04-26 19:47 40.25911 -74.89148 6107 ft 262 kts 47°
2026-04-26 19:47 40.27110 -74.87373 6059 ft 262 kts 47°
2026-04-26 19:48 40.28323 -74.85576 6016 ft 260 kts 47°
2026-04-26 19:48 40.29499 -74.83831 6004 ft 255 kts 48°
2026-04-26 19:48 40.30682 -74.82075 5998 ft 257 kts 48°
2026-04-26 19:48 40.31859 -74.80317 5994 ft 256 kts 48°
2026-04-26 19:49 40.32983 -74.78545 5982 ft 255 kts 56°
2026-04-26 19:49 40.33847 -74.76505 5987 ft 254 kts 61°
2026-04-26 19:49 40.34633 -74.74461 5988 ft 252 kts 62°
2026-04-26 19:49 40.35413 -74.72379 5894 ft 256 kts 62°
2026-04-26 19:50 40.36189 -74.70269 5679 ft 254 kts 63°
2026-04-26 19:50 40.36952 -74.68184 5489 ft 251 kts 63°
2026-04-26 19:50 40.37702 -74.66133 5302 ft 247 kts 63°
2026-04-26 19:50 40.38427 -74.64127 5112 ft 244 kts 63°
2026-04-26 19:51 40.39158 -74.62124 4925 ft 243 kts 63°
2026-04-26 19:51 40.39891 -74.60137 4721 ft 246 kts 63°
2026-04-26 19:51 40.40648 -74.58093 4509 ft 249 kts 63°
2026-04-26 19:51 40.41406 -74.56045 4302 ft 248 kts 63°
2026-04-26 19:52 40.42144 -74.54050 4093 ft 241 kts 63°
2026-04-26 19:52 40.42813 -74.52247 3887 ft 228 kts 63°
2026-04-26 19:52 40.43478 -74.50448 3670 ft 215 kts 63°
2026-04-26 19:52 40.44075 -74.48822 3652 ft 183 kts 62°
2026-04-26 19:53 40.44638 -74.47265 3412 ft 191 kts 63°
2026-04-26 19:53 40.45222 -74.45669 3151 ft 198 kts 63°
2026-04-26 19:53 40.45829 -74.44028 2961 ft 199 kts 63°
2026-04-26 19:53 40.46438 -74.42400 2875 ft 196 kts 63°
2026-04-26 19:54 40.47040 -74.40802 2838 ft 193 kts 63°
2026-04-26 19:54 40.47621 -74.39240 2814 ft 193 kts 63°
2026-04-26 19:54 40.48215 -74.37647 2809 ft 193 kts 63°
2026-04-26 19:54 40.48800 -74.36080 2818 ft 189 kts 63°
2026-04-26 19:55 40.49369 -74.34555 2809 ft 186 kts 62°
2026-04-26 19:55 40.49936 -74.33019 2799 ft 184 kts 63°
2026-04-26 19:55 40.50494 -74.31511 2792 ft 185 kts 63°
2026-04-26 19:55 40.51056 -74.29992 2796 ft 183 kts 63°
2026-04-26 19:56 40.51626 -74.28493 2792 ft 181 kts 59°
2026-04-26 19:56 40.52520 -74.27435 2777 ft 175 kts 32°
2026-04-26 19:56 40.53553 -74.26586 2801 ft 177 kts 32°
2026-04-26 19:56 40.54654 -74.25764 2672 ft 184 kts 29°
2026-04-26 19:57 40.55789 -74.24997 2486 ft 174 kts 27°
2026-04-26 19:57 40.56819 -74.24352 2279 ft 161 kts 27°
2026-04-26 19:57 40.57821 -74.23738 2223 ft 158 kts 27°
2026-04-26 19:57 40.58817 -74.23102 2039 ft 162 kts 27°
2026-04-26 19:58 40.59816 -74.22469 1862 ft 150 kts 27°
2026-04-26 19:58 40.60709 -74.21908 1740 ft 139 kts 26°
2026-04-26 19:58 40.61576 -74.21363 1550 ft 138 kts 27°
2026-04-26 19:58 40.62431 -74.20826 1337 ft 133 kts 28°
2026-04-26 19:59 40.63277 -74.20286 1146 ft 135 kts 27°
2026-04-26 19:59 40.64116 -74.19765 955 ft 133 kts 27°
2026-04-26 19:59 40.64960 -74.19229 701 ft 136 kts 30°
2026-04-26 19:59 40.65800 -74.18678 484 ft 133 kts 28°
2026-04-26 20:00 40.66613 -74.18158 324 ft 131 kts 28°
2026-04-26 20:00 40.67432 -74.17632 153 ft 129 kts 28°
2026-04-26 20:00 40.68224 -74.17130 22 ft 117 kts 29°
2026-04-26 20:00 40.68821 -74.16747 18 ft 73 kts 25°
2026-04-26 20:01 40.69126 -74.16555 22 ft 33 kts 25°
2026-04-26 20:01 40.69302 -74.16460 22 ft 19 kts 13°
2026-04-26 20:01 40.69423 -74.16452 23 ft 17 kts 355°
2026-04-26 20:01 40.69538 -74.16464 19 ft 15 kts 355°
2026-04-26 20:02 40.69629 -74.16455 18 ft 11 kts 20°
2026-04-26 20:02 40.69685 -74.16421 16 ft 5 kts 25°
2026-04-26 20:02 40.69723 -74.16425 17 ft 7 kts 323°
2026-04-26 20:02 40.69748 -74.16473 17 ft 11 kts 295°
2026-04-26 20:03 40.69798 -74.16609 13 ft 13 kts 295°
2026-04-26 20:03 40.69799 -74.16710 14 ft 10 kts 248°
2026-04-26 20:03 40.69775 -74.16776 16 ft 7 kts 242°
2026-04-26 20:03 40.69746 -74.16819 17 ft 6 kts 213°
2026-04-26 20:04 40.69701 -74.16850 17 ft 7 kts 206°
2026-04-26 20:04 40.69654 -74.16891 17 ft 8 kts 231°
2026-04-26 20:04 40.69629 -74.16967 17 ft 9 kts 250°
2026-04-26 20:04 40.69608 -74.17046 18 ft 9 kts 252°
2026-04-26 20:05 40.69623 -74.17113 20 ft 8 kts 320°
2026-04-26 20:05 40.69677 -74.17154 22 ft 10 kts 330°
2026-04-26 20:05 40.69740 -74.17209 19 ft 10 kts 322°
2026-04-26 20:05 40.69775 -74.17249 20 ft 4 kts 314°
2026-04-26 20:06 40.69786 -74.17282 20 ft 5 kts 271°
2026-04-26 20:06 40.69765 -74.17326 21 ft 7 kts 219°
2026-04-26 20:06 40.69727 -74.17367 20 ft 7 kts 219°
2026-04-26 20:06 40.69703 -74.17394 20 ft 2 kts 221°
2026-04-26 20:07 40.69695 -74.17403 19 ft 3 kts 225°
2026-04-26 20:07 40.69688 -74.17430 19 ft 3 kts 282°
2026-04-26 20:07 40.69696 -74.17445 19 ft 2 kts 310°
2026-04-26 20:07 40.69705 -74.17460 21 ft 2 kts 310°
2026-04-26 20:08 40.69712 -74.17470 21 ft 1 kts 310°
2026-04-26 20:08 40.69713 -74.17473 21 ft 0 kts 310°
2026-04-26 20:10 40.69714 -74.17473 21 ft 0 kts 310°